Regional Weather Roundup
Issued by NWS Sioux Falls, SD

Home | Current Version | Previous Version | Text Only | Print | Product List | Glossary On
Versions: 1 2 3 4 5 6 7 8 9 10 11 12 13 14 15 16 17 18 19 20 21 22 23 24 25 26 27 28 29 30 31 32 33 34 35 36 37 38 39 40 41 42 43 44 45 46 47 48 49 50
000
ASUS43 KFSD 281310
RWRFSD

WEATHER ROUNDUP FOR SE SOUTH DAKOTA/SW MINNESOTA/NW IOWA
NATIONAL WEATHER SERVICE SIOUX FALLS SD
700 AM CST WED JAN 28 2015

NOTE: "FAIR" INDICATES FEW OR NO CLOUDS BELOW 12,000 FEET WITH NO
SIGNIFICANT WEATHER AND OR OBSTRUCTIONS TO VISIBILITY.


SDZ038>040-050-052>070-281400-
SOUTHEAST SOUTH DAKOTA

CITY           SKY/WX    TMP DP  RH WIND       PRES   REMARKS
CHAMBERLAIN    CLOUDY    34  31  86 NW5       29.69F WCI  30
HURON          MOCLDY    33  30  88 S10       29.72S WCI  25
MADISON        FAIR      32  32 100 S17G25    29.76S WCI  21
MITCHELL         N/A     34  31  88 MISG      29.73F
SIOUX FALLS    MOCLDY    33  29  85 SE14      29.80F WCI  23
WINNER         FAIR      51  31  46 SW10      29.71F
YANKTON        CLEAR     32  28  86 SE12      29.82F WCI  23
$$

MNZ071-072-080-081-089-090-097-098-281400-
SOUTHWEST MINNESOTA

CITY           SKY/WX    TMP DP  RH WIND       PRES   REMARKS
FAIRMONT       CLOUDY    30  27  86 SE21G30   29.93F WCI  17
JACKSON        CLOUDY    32  30  93 S16G25    29.90F FOG     WCI  21
LUVERNE        MOCLDY    32  30  93 S14       29.85F WCI  22
MARSHALL       MOCLDY    32  27  80 S16       29.85S WCI  21
MONTEVIDEO     CLOUDY    32  32 100 S13G18    29.86F WCI  22
PIPESTONE      MOCLDY    32  30  93 S18       29.80F WCI  20
REDWOOD FALLS  CLOUDY    33  30  88 SE21      29.90F FOG     WCI  21
TRACY          CLOUDY    32  31  96 S17G26    29.84F FOG     WCI  21
WINDOM         CLOUDY    30  30 100 SE16G22   29.89R FOG     WCI  19
WORTHINGTON    CLOUDY    30  27  86 S14G23    29.87F WCI  20
$$

IAZ001>003-012>014-020>022-031-032-NEZ013-014-SDZ071-281400-
NORTHWEST IOWA

CITY           SKY/WX    TMP DP  RH WIND       PRES   REMARKS
CHEROKEE       CLOUDY    31  31 100 SE9       29.91S FOG     WCI  23
DENISON        PTCLDY    32  32 100 SE12G18   29.88F WCI  23
ESTHERVILLE    CLOUDY    30  29  96 S24       29.91F FOG     WCI  16
LE MARS        PTCLDY    32  30  93 SE8       29.86F WCI  25
ORANGE CITY    PTCLDY    32  28  86 SE10      29.85F WCI  24
SHELDON        MOCLDY    32  32 100 SE18G24   29.85F WCI  20
SIOUX CITY     CLEAR     32  29  88 SE13      29.86F WCI  22
SPENCER        CLOUDY    31  29  92 SE17      29.90F FOG     WCI  19
STORM LAKE     CLOUDY    30  30 100 SE18G25   29.91S FOG     WCI  18
$$

ABBREVIATIONS USED IN REMARKS
   TC - TEMPERATURE IN CELSIUS
  WCI - WIND CHILL INDEX
   HX - HEAT INDEX
  VSB - VISIBILITY



USA.gov is the U.S. government's official web portal to all federal, state and local government web resources and services.